Погода в Нижнеянске

Россия / Республика Саха (Якутия)     71°26′22″N   136°07′58″E
темп.,
°C
ветер,
м/с
пор.,
м/с
влажн.,
%
обл.,
%
осадки,
мм/ч
давл.,
гПа
погр.,
м
1 марта, пн
пн101:00−36в2210080 0.0 102619
04:00−35в239970 0.0 102619
07:00−35вюв239960 0.0 102619
10:00−36вюв229963 0.0 102519
13:00−34вюв229632 0.0 102520
16:00−35юв229735 0.0 102419
19:00−37юв22990 0.0 102519
22:00−38ююв111003 0.0 102619
2 марта, вт
вт201:00−39ююв111003 0.0 102619
04:00−39ююз111004 0.0 102619
07:00−39ю111004 0.0 102719
10:00−36з019734 0.0 102731
13:00−34ссз009698 0.1 102856
16:00−34ссв009798 0.1 102825
19:00−34с009996 0.0 102919
22:00−35з1110094 0.1 102919
3 марта, ср
ср301:00−36сз1110094 0.0 102919
04:00−37зсз1110089 0.0 102819
07:00−37ссв1110076 0.0 102819
10:00−36в229849 0.0 102719
13:00−35в239670 0.0 102624
16:00−35всв229766 0.0 102519
19:00−36всв2210086 0.0 102519
22:00−36св2210088 0.0 102419
4 марта, чт
чт401:00−33ссв239998 0.1 102338
04:00−31с349899 0.1 102296
07:00−29ссв3798100 0.1 1022207
10:00−28ссв4697100 0.1 1021281
13:00−26с5796100 0.1 1021327
16:00−27с6996100 0.1 1020308
19:00−28с61096100 0.1 1022263
22:00−31ссз61094100 0.1 1021211
5 марта, пт
пт501:00−33сз6109797 0.0 1022168
04:00−32сз6119699 0.0 1022208
07:00−31сз71195100 0.0 1022266
10:00−30сз71294100 0.0 1022289
13:00−30сз81294100 0.0 1022283
16:00−29сз81393100 0.0 1023322
19:00−29сз81293100 0.0 1024306
22:00−29сз71193100 0.0 1024315